Regional Weather Roundup
Issued by NWS

Home | Current Version | Previous Version | Text Only | Print | Product List | Glossary On
Versions: 1 2 3 4 5 6 7 8 9 10 11 12 13 14 15 16 17 18 19 20 21 22 23 24 25 26 27 28 29 30 31 32 33 34 35 36 37 38 39 40 41 42 43 44 45 46 47 48 49 50
000
ASUS45 KTFX 240419
RWRMT
MONTANA HOURLY WEATHER ROUNDUP
NATIONAL WEATHER SERVICE GREAT FALLS MT
1019 PM MDT TUE SEP 23 2014

NOTE: "FAIR" INDICATES FEW OR NO CLOUDS BELOW 12000 FEET WITH NO
SIGNIFICANT WEATHER AND/OR OBSTRUCTIONS TO VISIBILITY.

* THESE STATIONS ARE NOT UNDER NWS QUALITY CONTROL. THEY DO NOT
   REPORT WEATHER SUCH AS PRECIPITATION OR FOG.

MTZ001>007-043-240500-
WEST OF THE DIVIDE
CITY           SKY/WX    TMP DP  RH WIND       PRES   REMARKS
KALISPELL      CLOUDY    61  54  78 SE5       29.94R
MISSOULA       CLOUDY    68  50  53 SE7       29.95F
BUTTE          PTCLDY    55  45  69 SE6       30.13R
MULLAN PASS    CLOUDY    57  45  64 W3        30.08S
* ESSEX        N/A       58  49  72 E2G7       N/A
* LINCOLN      N/A       62  47  58 NW3        N/A
* POLSON       N/A       66  49  54 E1         N/A
* RONAN APT    CLOUDY    63  52  68 N/A        N/A
* SEELEY LAKE  N/A       59  46  62 N/A        N/A
* THOMP F APT  CLOUDY    57  47  69 N3G10      N/A
$$

MTZ008-052>055-240500-
SOUTHWEST MONTANA
CITY           SKY/WX    TMP DP  RH WIND       PRES   REMARKS
BOZEMAN        MOCLDY    63  52  68 SE12      30.08S
DILLON         MOCLDY    57  52  83 CALM      30.12R
W YELLOWSTONE  PTCLDY    50  46  86 CALM      30.26S
* THREE FORKS  MOCLDY    64  46  52 N/A        N/A
* BOULDER HILL N/A       62  43  50 S5         N/A
* MONIDA PASS  N/A       53  47  80 SE4        N/A
* RAYNOLDS PAS N/A       54  40  59 S2         N/A
* WHITEHALL    N/A       67  50  55 SW9G17     N/A
* WISE RIVER   N/A       57  39  51 W3G8       N/A
$$

MTZ009>010-012-014-046-048-049-054-240500-
EAST SLOPES AND CENTRAL MONTANA
CITY           SKY/WX    TMP DP  RH WIND       PRES   REMARKS
CUT BANK       MOCLDY    63  48  58 SW5       29.97R
GREAT FALLS    PTCLDY    63  45  52 S9        29.97S
HELENA         MOCLDY    63  54  73 SW7       30.04R
MALMSTROM AFB  MOCLDY    59  48  67 SE7       29.99R
* CONRAD       MOCLDY    54  54 100 N/A        N/A
* EAST GLACIER N/A       58  45  62 NW4        N/A
* MONARCH      N/A       56  42  60 S9         N/A
* PENDROY      N/A       53  51  93 W2         N/A
* ROGERS PASS  N/A       59  45  60 NW3        N/A
* SAINT MARY   N/A       53  45  74 SE3        N/A
* SWEET GRASS  N/A       65  46  50 SW7        N/A
* WHITE SULPH  N/A       55  48  77 NE9        N/A
$$

MTZ011-013-016-021-035-040-045-047-050-051-240500-
NORTH CENTRAL MONTANA
CITY           SKY/WX    TMP DP  RH WIND       PRES   REMARKS
HAVRE          MOCLDY    63  50  63 S6        29.93S
LEWISTOWN      MOCLDY    61  48  62 SE6       30.04S
* CHINOOK      MOCLDY    59  52  78 CALM      29.93F
* FORT BENTON  CLEAR     64  50  61 SE7       29.96S
* CHESTER      N/A       57  44  62 NE2        N/A
* DENTON       N/A       63  46  54 W7         N/A
* GEYSER       N/A       57  40  53 S6         N/A
* JUDITH GAP   N/A       59  48  67 W4         N/A
* LOMA         N/A       64  52  65 SW2        N/A
$$

MTZ017>020-022>027-061-062-240500-
NORTHEAST MONTANA
CITY           SKY/WX    TMP DP  RH WIND       PRES   REMARKS
GLASGOW        CLEAR     64  50  61 W5        29.90R
GLENDIVE       CLEAR     61  48  62 W12       29.93R
JORDAN         CLEAR     55  50  83 W3        29.95R
SIDNEY         CLEAR    N/A N/A N/A CALM      29.89R
WOLF POINT     CLEAR     63  52  68 S5        29.88R
* BEAVER HILL  N/A       65  48  54 SW4        N/A
* CIRCLE       N/A       62  49  63 N/A        N/A
* LINDSAY DVD  N/A       64  47  54 W6         N/A
* NAVAJO       N/A       70  49  47 W12        N/A
$$

MTZ028>042-056>058-240500-
SOUTHCENTRAL AND SOUTHEAST MONTANA
CITY           SKY/WX    TMP DP  RH WIND       PRES   REMARKS
BAKER          CLEAR     61  46  58 W5        29.96R
BILLINGS       PTCLDY    70  46  42 W13       30.02S
LIVINGSTON     PTCLDY    64  46  52 CALM      30.09R
MILES CITY     CLEAR     64  46  52 W10       29.95R
* LAUREL APT   PTCLDY    72  43  35 N/A        N/A
* ROUNDUP APT  PTCLDY    64  46  52 N/A        N/A
* ALZADA       N/A       63  47  56 W2         N/A
* HYSHAM       N/A       68  43  40 N/A        N/A
* LAME DEER    N/A       69  44  41 N/A        N/A
* REED POINT   N/A       70  46  42 W6         N/A
* ROSCOE HILL  N/A       65  38  37 S1G7       N/A
$$

REGIONAL REPORTS...DAKOTAS
CITY           SKY/WX    TMP DP  RH WIND       PRES   REMARKS
WILLISTON      CLEAR     63  50  63 S3        29.85R
DICKINSON      CLEAR     61  55  81 S10       29.90R
BEACH          N/A       54  50  86 S5        29.94R
CROSBY         CLEAR     59  59 100 S9        29.83S
TIOGA          CLEAR     61  61 100 S8        29.90R
WATFORD CITY   CLEAR     59  55  87 S3        29.86R
BISMARCK       CLOUDY    61  57  87 S10       29.95R
GRAND FORKS    PTCLDY    57  52  83 S6        30.01R
FARGO          CLOUDY    61  54  78 SE15G26   30.02F
BUFFALO SD     CLEAR     64  52  65 W7        29.90R
RAPID CITY     CLEAR     63  52  68 W6        29.99R
$$

REGIONAL REPORTS...WYOMING/IDAHO/WASHINGTON
CITY           SKY/WX    TMP DP  RH WIND       PRES   REMARKS
GILLETTE       CLEAR     50  43  77 SW5       30.08R
SHERIDAN       CLEAR     55  46  72 S5        30.07R
CODY           PTCLDY    63  43  48 SE8       30.14R
YELLOWSTONE LA PTCLDY    43  41  93 CALM      30.36R
SALMON         CLOUDY    61  52  72 CALM      30.03R
MULLAN PASS    CLOUDY    57  45  64 W3        30.08S
SAND POINT     CLOUDY    63  59  87 CALM      29.90F
SPOKANE        LGT RAIN  66  55  68 NW9       29.92R
$$

REGIONAL REPORTS...ALBERTA
CITY           SKY/WX    TMP DP  RH WIND       PRES   REMARKS
CALGARY        PTCLDY    59  50  72 SE8       29.87F
LETHBRIDGE     MOCLDY    55  48  77 SE7       29.90F
MEDICINE HAT   CLEAR     54  50  86 S5        29.90F
EDMONTON       FAIR      48  43  83 SE8       29.84S
WATERTON GATE  N/A       55  48  77 E1         N/A
CARDSTON       N/A       59  48  67 SW2        N/A
MILK RIVER     N/A       57  48  72 S1         N/A
$$

REGIONAL REPORTS...SASKATCHEWAN
CITY           SKY/WX    TMP DP  RH WIND       PRES   REMARKS
SWIFT CURRENT  CLEAR     59  50  72 W14       29.91R
REGINA         N/A       59  54  84 W2        29.82R
VAL MARIE      N/A       55  50  83 N1         N/A
ASSINIBOIA     N/A       59  50  72 W10        N/A
CORONACH       N/A       54  45  72 NW2        N/A

$$



USA.gov is the U.S. government's official web portal to all federal, state and local government web resources and services.